TimeCST,TemperatureF,Dew PointF,Humidity,Sea Level PressureIn,VisibilityMPH,Wind Direction,Wind SpeedMPH,Gust SpeedMPH,PrecipitationIn,Events,Conditions,WindDirDegrees,DateUTC
12:15 AM,33.8,12.2,41,30.47,10.0,Calm,Calm,-,N/A,,Clear,0,2012-12-21 06:15:00
12:35 AM,32.0,17.6,55,30.47,10.0,Calm,Calm,-,N/A,,Clear,0,2012-12-21 06:35:00
12:55 AM,32.0,17.6,55,30.47,10.0,Calm,Calm,-,N/A,,Clear,0,2012-12-21 06:55:00
1:15 AM,32.0,17.6,55,30.47,10.0,Calm,Calm,-,N/A,,Clear,0,2012-12-21 07:15:00
1:35 AM,32.0,19.4,60,30.47,10.0,Calm,Calm,-,N/A,,Clear,0,2012-12-21 07:35:00
1:55 AM,32.0,19.4,60,30.47,10.0,Calm,Calm,-,N/A,,Clear,0,2012-12-21 07:55:00
2:15 AM,30.2,17.6,60,30.48,10.0,Calm,Calm,-,N/A,,Clear,0,2012-12-21 08:15:00
2:35 AM,30.2,17.6,60,30.48,10.0,Calm,Calm,-,N/A,,Clear,0,2012-12-21 08:35:00
2:55 AM,30.2,17.6,60,30.48,10.0,Calm,Calm,-,N/A,,Clear,0,2012-12-21 08:55:00
3:15 AM,30.2,17.6,60,30.47,10.0,Calm,Calm,-,N/A,,Clear,0,2012-12-21 09:15:00
3:35 AM,30.2,17.6,60,30.48,10.0,Calm,Calm,-,N/A,,Clear,0,2012-12-21 09:35:00
3:55 AM,30.2,17.6,60,30.48,10.0,Calm,Calm,-,N/A,,Clear,0,2012-12-21 09:55:00
4:15 AM,30.2,15.8,55,30.48,10.0,Calm,Calm,-,N/A,,Clear,0,2012-12-21 10:15:00
4:35 AM,30.2,17.6,60,30.48,10.0,Calm,Calm,-,N/A,,Clear,0,2012-12-21 10:35:00
4:55 AM,30.2,15.8,55,30.48,10.0,Calm,Calm,-,N/A,,Clear,0,2012-12-21 10:55:00
5:15 AM,30.2,14.0,51,30.48,10.0,Calm,Calm,-,N/A,,Clear,0,2012-12-21 11:15:00
5:35 AM,32.0,12.2,44,30.49,10.0,Calm,Calm,-,N/A,,Clear,0,2012-12-21 11:35:00
5:55 AM,32.0,10.4,41,30.49,10.0,Calm,Calm,-,N/A,,Clear,0,2012-12-21 11:55:00
6:15 AM,32.0,14.0,48,30.49,10.0,Calm,Calm,-,N/A,,Clear,0,2012-12-21 12:15:00
6:35 AM,30.2,15.8,55,30.49,10.0,Calm,Calm,-,N/A,,Clear,0,2012-12-21 12:35:00
6:55 AM,30.2,15.8,55,30.50,10.0,Calm,Calm,-,N/A,,Clear,0,2012-12-21 12:55:00
7:15 AM,30.2,17.6,60,30.50,10.0,Calm,Calm,-,N/A,,Clear,0,2012-12-21 13:15:00
7:35 AM,28.4,15.8,59,30.49,10.0,Calm,Calm,-,N/A,,Clear,0,2012-12-21 13:35:00
7:55 AM,28.4,17.6,64,30.51,10.0,Calm,Calm,-,N/A,,Clear,0,2012-12-21 13:55:00
8:15 AM,32.0,19.4,60,30.52,10.0,Calm,Calm,-,N/A,,Clear,0,2012-12-21 14:15:00
8:35 AM,33.8,21.2,60,30.52,10.0,Calm,Calm,-,N/A,,Clear,0,2012-12-21 14:35:00
8:55 AM,37.4,15.8,41,30.52,10.0,Calm,Calm,-,N/A,,Clear,0,2012-12-21 14:55:00
9:15 AM,39.2,14.0,36,30.52,10.0,Calm,Calm,-,N/A,,Clear,0,2012-12-21 15:15:00
9:35 AM,41.0,10.4,29,30.53,10.0,Calm,Calm,-,N/A,,Clear,0,2012-12-21 15:35:00
9:55 AM,44.6,10.4,25,30.53,10.0,Calm,Calm,-,N/A,,Clear,0,2012-12-21 15:55:00
10:15 AM,48.2,10.4,22,30.53,10.0,Calm,Calm,-,N/A,,Clear,0,2012-12-21 16:15:00
10:35 AM,51.8,3.2,14,30.52,10.0,Calm,Calm,-,N/A,,Clear,0,2012-12-21 16:35:00
10:55 AM,53.6,-0.4,11,30.51,10.0,Calm,Calm,-,N/A,,Clear,0,2012-12-21 16:55:00
11:15 AM,55.4,-31.0,4,30.50,10.0,Calm,Calm,-,N/A,,Clear,0,2012-12-21 17:15:00
11:35 AM,59.0,-9999,N/A,30.49,10.0,Calm,Calm,-,N/A,,Clear,0,2012-12-21 17:35:00
11:55 AM,59.0,-9999,N/A,30.49,10.0,Calm,Calm,-,N/A,,Clear,0,2012-12-21 17:55:00
12:15 PM,60.8,-9999,N/A,30.47,10.0,Calm,Calm,-,N/A,,Clear,0,2012-12-21 18:15:00
12:35 PM,62.6,-9999,N/A,30.45,10.0,Calm,Calm,-,N/A,,Clear,0,2012-12-21 18:35:00
12:55 PM,62.6,-9999,N/A,30.44,10.0,Calm,Calm,-,N/A,,Clear,0,2012-12-21 18:55:00
1:15 PM,62.6,-9999,N/A,30.43,10.0,Calm,Calm,-,N/A,,Clear,0,2012-12-21 19:15:00
1:35 PM,64.4,-9999,N/A,30.41,10.0,Calm,Calm,-,N/A,,Clear,0,2012-12-21 19:35:00
1:55 PM,64.4,-9999,N/A,30.40,10.0,Calm,Calm,-,N/A,,Clear,0,2012-12-21 19:55:00
2:15 PM,64.4,-9999,N/A,30.39,10.0,Calm,Calm,-,N/A,,Clear,0,2012-12-21 20:15:00
2:35 PM,66.2,-9999,N/A,30.39,10.0,Calm,Calm,-,N/A,,Clear,0,2012-12-21 20:35:00
2:55 PM,66.2,-9999,N/A,30.38,10.0,Calm,Calm,-,N/A,,Clear,0,2012-12-21 20:55:00
3:15 PM,66.2,-9999,N/A,30.37,10.0,Calm,Calm,-,N/A,,Clear,0,2012-12-21 21:15:00
3:35 PM,66.2,-9999,N/A,30.37,10.0,Calm,Calm,-,N/A,,Clear,0,2012-12-21 21:35:00
3:55 PM,64.4,-9999,N/A,30.37,10.0,Calm,Calm,-,N/A,,Clear,0,2012-12-21 21:55:00
4:15 PM,64.4,-9999,N/A,30.36,10.0,Calm,Calm,-,N/A,,Clear,0,2012-12-21 22:15:00
4:35 PM,64.4,-9999,N/A,30.36,10.0,Calm,Calm,-,N/A,,Clear,0,2012-12-21 22:35:00
4:55 PM,64.4,-9999,N/A,30.36,10.0,Calm,Calm,-,N/A,,Clear,0,2012-12-21 22:55:00
5:15 PM,62.6,-9999,N/A,30.36,10.0,Calm,Calm,-,N/A,,Clear,0,2012-12-21 23:15:00
5:35 PM,60.8,-9999,N/A,30.36,10.0,Calm,Calm,-,N/A,,Clear,0,2012-12-21 23:35:00
5:55 PM,57.2,-18.4,4,30.37,10.0,Calm,Calm,-,N/A,,Clear,0,2012-12-21 23:55:00
6:15 PM,57.2,-16.6,4,30.37,10.0,Calm,Calm,-,N/A,,Clear,0,2012-12-22 00:15:00
6:35 PM,55.4,-11.2,6,30.37,10.0,Calm,Calm,-,N/A,,Clear,0,2012-12-22 00:35:00
6:55 PM,55.4,-7.6,7,30.37,10.0,Calm,Calm,-,N/A,,Clear,0,2012-12-22 00:55:00
7:15 PM,53.6,-2.2,10,30.37,10.0,Calm,Calm,-,N/A,,Clear,0,2012-12-22 01:15:00
7:35 PM,51.8,-0.4,12,30.37,10.0,Calm,Calm,-,N/A,,Clear,0,2012-12-22 01:35:00
7:55 PM,51.8,3.2,14,30.37,10.0,Calm,Calm,-,N/A,,Clear,0,2012-12-22 01:55:00
8:15 PM,51.8,-2.2,11,30.37,10.0,Calm,Calm,-,N/A,,Clear,0,2012-12-22 02:15:00
8:35 PM,50.0,5.0,16,30.37,10.0,Calm,Calm,-,N/A,,Clear,0,2012-12-22 02:35:00
8:55 PM,50.0,6.8,17,30.38,10.0,Calm,Calm,-,N/A,,Clear,0,2012-12-22 02:55:00
9:15 PM,50.0,1.4,14,30.37,10.0,Calm,Calm,-,N/A,,Clear,0,2012-12-22 03:15:00
9:35 PM,50.0,3.2,15,30.38,10.0,Calm,Calm,-,N/A,,Clear,0,2012-12-22 03:35:00
9:55 PM,48.2,10.4,22,30.39,10.0,Calm,Calm,-,N/A,,Clear,0,2012-12-22 03:55:00
10:15 PM,46.4,14.0,27,30.39,10.0,Calm,Calm,-,N/A,,Clear,0,2012-12-22 04:15:00
10:35 PM,44.6,12.2,27,30.39,10.0,Calm,Calm,-,N/A,,Clear,0,2012-12-22 04:35:00
10:55 PM,44.6,17.6,34,30.39,10.0,Calm,Calm,-,N/A,,Clear,0,2012-12-22 04:55:00
11:15 PM,42.8,21.2,42,30.39,10.0,Calm,Calm,-,N/A,,Clear,0,2012-12-22 05:15:00
11:35 PM,42.8,19.4,39,30.39,10.0,Calm,Calm,-,N/A,,Clear,0,2012-12-22 05:35:00
11:55 PM,42.8,19.4,39,30.37,10.0,Calm,Calm,-,N/A,,Clear,0,2012-12-22 05:55:00